Weather History for KLPR - March, 2014

Change the Weather History Date:

Saturday, March 8, 2014

  Actual Average (KCLE) Record (KCLE)
Temperature  
Mean Temperature 33 °F 36 °F  
Max Temperature 39 °F 43 °F 79 °F (2000)
Min Temperature 26 °F 28 °F -1 °F (1960)
Degree Days  
Heating Degree Days 32 29  
Month to date heating degree days 243  
Since 1 July heating degree days 4460  
Cooling Degree Days 0 0  
Month to date cooling degree days 0  
Year to date cooling degree days 0  
Moisture  
Dew Point 26 °F    
Average Humidity 80    
Maximum Humidity 85    
Minimum Humidity 70    
Precipitation  
Precipitation 0.01 in 0.09 in - ()
Month to date precipitation 0.68  
Year to date precipitation 5.74  
Snow  
Snow 0.00 in 0.50 in - ()
Month to date snowfall 3.8  
Since 1 July snowfall 56.0  
Snow Depth -    
Sea Level Pressure  
Sea Level Pressure 30.06 in    
Wind  
Wind Speed 7 mph (North)    
Max Wind Speed 13 mph    
Max Gust Speed -    
Visibility 3 miles    
Events Rain , Snow    
T = Trace of Precipitation, MM = Missing Value Source: NWS Daily Summary

Daily Weather History Graph

Daily Weather History Graph

Search for Another Location

Airport or City:

Trip Planner

Search our weather history database for the weather conditions in past years. The results will help you decide how hot, cold, wet, or windy it might be!

Date:

Astronomy

Mar. 08, 2014 Rise Set
Actual Time 6:52 AM EST 6:27 PM EST
Civil Twilight 6:24 AM EST 6:55 PM EST
Nautical Twilight 5:52 AM EST 7:27 PM EST
Astronomical Twilight 5:20 AM EST 7:59 PM EST
Moon 11:28 AM EST (3/8) 1:28 AM EST (3/8)
Length of Visible Light 12h 30m
Length of Day
11h 35m
First Quarter, 51% of the Moon is Illuminated
Mar 8
First Quarter
Mar 16
Full
Mar 23
Last Quarter
Mar 30
New
Apr 7
First Quarter

Hourly Weather History & Observations

Time (EST) Temp. Windchill Dew Point Humidity Pressure Visibility Wind Dir Wind Speed Gust Speed Precip Events Conditions
12:53 AM 34.0 °F 31.0 °F 28.0 °F 79% 29.94 in 7.0 mi SW 3.5 mph - N/A   Clear
1:53 AM 35.1 °F 32.2 °F 28.9 °F 78% 29.94 in 6.0 mi SSW 3.5 mph - N/A   Haze
2:53 AM 34.0 °F - 28.0 °F 79% 29.93 in 6.0 mi Calm Calm - N/A   Haze
3:53 AM 35.1 °F 30.1 °F 28.9 °F 78% 29.92 in 6.0 mi SW 5.8 mph - N/A   Haze
4:53 AM 39.9 °F 35.1 °F 30.9 °F 70% 29.94 in 5.0 mi NW 6.9 mph - N/A   Haze
5:53 AM 37.9 °F 32.1 °F 30.9 °F 76% 29.98 in 4.0 mi NW 8.1 mph - 0.01 in Rain Light Rain
6:53 AM 37.0 °F 32.4 °F 32.0 °F 82% 29.99 in 3.0 mi NNW 5.8 mph - 0.00 in   Overcast
7:13 AM 37.0 °F 32.4 °F 32.0 °F 82% 29.98 in 2.0 mi NW 5.8 mph - 0.00 in   Haze
7:15 AM 37.0 °F 33.3 °F 32.0 °F 82% 29.98 in 1.8 mi NW 4.6 mph - 0.00 in   Haze
7:53 AM 37.0 °F 33.3 °F 32.0 °F 82% 30.01 in 1.2 mi NW 4.6 mph - 0.00 in   Haze
8:25 AM 37.0 °F 33.3 °F 32.0 °F 82% 30.00 in 1.8 mi NNW 4.6 mph - N/A   Haze
8:53 AM 37.0 °F 31.6 °F 32.0 °F 82% 30.04 in 2.0 mi North 6.9 mph - N/A   Haze
9:24 AM 37.0 °F 31.6 °F 32.0 °F 82% 30.02 in 1.8 mi North 6.9 mph - N/A   Haze
9:50 AM 35.6 °F 27.5 °F 28.4 °F 75% 30.03 in 2.5 mi North 11.5 mph - N/A   Haze
9:53 AM 35.1 °F 26.9 °F 28.9 °F 78% 30.05 in 2.5 mi NNE 11.5 mph - N/A   Haze
10:36 AM 33.1 °F 23.9 °F 27.0 °F 78% 30.05 in 4.0 mi NNE 12.7 mph - N/A   Haze
10:48 AM 33.8 °F 25.8 °F 26.6 °F 75% 30.06 in 4.0 mi NNE 10.4 mph - N/A   Haze
10:53 AM 33.1 °F 24.4 °F 28.0 °F 82% 30.09 in 3.0 mi North 11.5 mph - N/A   Haze
11:23 AM 33.1 °F 24.4 °F 27.0 °F 78% 30.06 in 4.0 mi NNE 11.5 mph - N/A   Haze
11:53 AM 32.0 °F 23.6 °F 26.1 °F 79% 30.09 in 4.0 mi NNE 10.4 mph - N/A   Haze
12:28 PM 32.0 °F 23.6 °F 27.0 °F 82% 30.07 in 2.5 mi NNE 10.4 mph - 0.00 in Snow Light Snow
12:53 PM 32.0 °F 23.0 °F 27.0 °F 82% 30.09 in 2.5 mi North 11.5 mph - 0.00 in Snow Light Snow
1:26 PM 32.0 °F 23.6 °F 26.1 °F 79% 30.05 in 1.8 mi North 10.4 mph - 0.00 in Snow Light Snow
1:39 PM 32.0 °F 23.0 °F 26.1 °F 79% 30.05 in 2.0 mi NNE 11.5 mph - 0.00 in Snow Light Snow
1:53 PM 30.9 °F 22.2 °F 26.1 °F 82% 30.07 in 2.5 mi NNE 10.4 mph - 0.00 in Snow Light Snow
2:30 PM 30.9 °F 22.8 °F 26.1 °F 82% 30.05 in 1.0 mi North 9.2 mph - 0.00 in Snow Light Snow
2:41 PM 30.9 °F 22.8 °F 26.1 °F 82% 30.06 in 0.8 mi North 9.2 mph - 0.00 in Snow Light Snow
2:53 PM 30.9 °F 22.8 °F 26.1 °F 82% 30.09 in 0.8 mi North 9.2 mph - 0.00 in Snow Light Snow
3:02 PM 30.9 °F 23.5 °F 26.1 °F 82% 30.07 in 0.8 mi NNE 8.1 mph - 0.00 in Snow Light Snow
3:18 PM 30.9 °F 22.2 °F 26.1 °F 82% 30.07 in 0.8 mi NNE 10.4 mph - 0.00 in Snow Light Snow
3:22 PM 30.9 °F 23.5 °F 26.1 °F 82% 30.07 in 0.8 mi North 8.1 mph - 0.00 in Snow Light Snow
3:27 PM 30.9 °F 21.2 °F 26.1 °F 82% 30.07 in 0.8 mi North 12.7 mph - 0.00 in Snow Light Snow
3:32 PM 30.9 °F 22.8 °F 26.1 °F 82% 30.07 in 1.0 mi North 9.2 mph - 0.00 in Snow Light Snow
3:44 PM 30.9 °F 22.2 °F 26.1 °F 82% 30.07 in 1.5 mi North 10.4 mph - 0.00 in Snow Light Snow
3:53 PM 30.9 °F 21.2 °F 26.1 °F 82% 30.10 in 1.2 mi North 12.7 mph - 0.00 in Snow Light Snow
4:31 PM 30.0 °F 21.7 °F 25.0 °F 82% 30.08 in 1.8 mi NNE 9.2 mph - 0.00 in Snow Light Snow
4:48 PM 30.2 °F 22.6 °F 24.8 °F 80% 30.08 in 1.0 mi NNE 8.1 mph - 0.00 in Snow Light Snow
4:53 PM 30.0 °F 22.4 °F 25.0 °F 82% 30.10 in 0.8 mi NNE 8.1 mph - 0.00 in Snow Light Snow
5:05 PM 30.0 °F 22.4 °F 25.0 °F 82% 30.08 in 0.8 mi NNE 8.1 mph - 0.00 in Snow Light Snow
5:21 PM 30.0 °F 21.7 °F 24.1 °F 79% 30.08 in 0.8 mi NNE 9.2 mph - 0.00 in Snow Light Snow
5:32 PM 28.9 °F 21.1 °F 24.1 °F 82% 30.09 in 1.0 mi NNE 8.1 mph - 0.00 in Snow Light Snow
5:53 PM 28.9 °F 21.9 °F 25.0 °F 85% 30.11 in 0.8 mi North 6.9 mph - 0.00 in Snow Light Snow
6:03 PM 28.9 °F 21.9 °F 24.1 °F 82% 30.09 in 1.2 mi North 6.9 mph - 0.00 in Snow Light Snow
6:36 PM 28.9 °F 21.9 °F 24.1 °F 82% 30.10 in 2.0 mi NNE 6.9 mph - 0.00 in Snow Light Snow
6:53 PM 28.0 °F 18.6 °F 23.0 °F 81% 30.13 in 4.0 mi NNE 10.4 mph - 0.00 in Snow Light Snow
7:30 PM 28.0 °F 20.0 °F 23.0 °F 81% 30.11 in 8.0 mi NNE 8.1 mph - 0.00 in   Overcast
7:53 PM 28.0 °F 21.7 °F 23.0 °F 81% 30.14 in 8.0 mi NNE 5.8 mph - 0.00 in   Overcast
8:53 PM 28.0 °F 21.7 °F 21.9 °F 78% 30.15 in 9.0 mi NNE 5.8 mph - N/A   Overcast
9:53 PM 28.0 °F 19.3 °F 21.0 °F 75% 30.16 in 10.0 mi NE 9.2 mph - N/A   Overcast
10:40 PM 27.0 °F 17.3 °F 19.9 °F 75% 30.14 in 10.0 mi NNE 10.4 mph - N/A   Overcast
10:53 PM 27.0 °F 18.0 °F 19.0 °F 72% 30.18 in 10.0 mi NNE 9.2 mph - N/A   Overcast
11:53 PM 26.1 °F 20.5 °F 19.0 °F 75% 30.18 in 10.0 mi North 4.6 mph - N/A   Overcast